Sauk Centre, MN

1:59 AM CST on December 10, 2019 (GMT -0600)
Sauk Centre

Weather History for KD39 - October, 2019

Change the Weather History Date:

Monday, October 14, 2019

  Actual Average (WUND) Record (WUND)
Temperature  
Mean Temperature 38 °F -  
Max Temperature 47 °F - - (-1)
Min Temperature 30 °F - - (-1)
Degree Days  
Heating Degree Days 26    
Moisture  
Dew Point 32 °F    
Average Humidity 80    
Maximum Humidity 99    
Minimum Humidity 55    
Precipitation  
Precipitation 0.00 in - - ()
Sea Level Pressure  
Sea Level Pressure 29.93 in    
Wind  
Wind Speed 5 mph ()    
Max Wind Speed 9 mph    
Max Gust Speed -    
Visibility 10.0 miles    
Events      
Averages and records for this station are not official NWS values.
T = Trace of Precipitation, MM = Missing Value Source: Averaged Metar Reports

Daily Weather History Graph

Daily Weather History Graph

Search for Another Location

Airport or City:

Astronomy

Oct. 14, 2019 Rise Set
Actual Time 7:34 AM CDT 6:36 PM CDT
Civil Twilight 7:04 AM CDT 7:05 PM CDT
Nautical Twilight 6:30 AM CDT 7:40 PM CDT
Astronomical Twilight 5:55 AM CDT 8:14 PM CDT
Moon 7:26 PM CDT (10/14) 8:06 AM CDT (10/14)
Length of Visible Light 12h 01m
Length of Day
11h 01m
Full, 99% of the Moon is Illuminated
Oct 14
Full
Oct 21
Last Quarter
Oct 27
New
Nov 4
First Quarter
Nov 12
Full

Hourly Weather History & Observations

Time (CDT) Temp. Windchill Dew Point Humidity Pressure Visibility Wind Dir Wind Speed Gust Speed Precip Events Conditions
12:15 AM 35.1 °F 29.3 °F 32.0 °F 89% 29.93 in 10.0 mi West 6.9 mph - N/A   Overcast
12:19 AM 35.1 °F 29.3 °F 32.0 °F 89% 29.93 in 10.0 mi West 6.9 mph - N/A   Overcast
12:37 AM 34.9 °F 29.0 °F 32.0 °F 89% 29.93 in 10.0 mi West 6.9 mph - N/A   Overcast
12:55 AM 34.7 °F 28.8 °F 32.0 °F 90% 29.93 in 10.0 mi West 6.9 mph - N/A   Overcast
1:16 AM 34.7 °F 29.6 °F 32.0 °F 90% 29.94 in 10.0 mi West 5.8 mph - N/A   Overcast
1:35 AM 34.7 °F 28.8 °F 32.0 °F 90% 29.94 in 10.0 mi West 6.9 mph - N/A   Overcast
1:58 AM 34.5 °F 30.4 °F 32.0 °F 90% 29.94 in 10.0 mi West 4.6 mph - N/A   Overcast
2:17 AM 34.3 °F 29.2 °F 32.0 °F 91% 29.94 in 10.0 mi West 5.8 mph - N/A   Overcast
2:36 AM 34.3 °F 30.2 °F 32.0 °F 91% 29.94 in 10.0 mi West 4.6 mph - N/A   Overcast
2:55 AM 34.2 °F 30.0 °F 32.0 °F 92% 29.94 in 10.0 mi West 4.6 mph - N/A   Overcast
2:56 AM 34.0 °F 29.8 °F 32.0 °F 92% 29.94 in 10.0 mi West 4.6 mph - N/A   Overcast
3:15 AM 34.2 °F 29.0 °F 32.2 °F 92% 29.94 in 10.0 mi WSW 5.8 mph - N/A   Overcast
3:19 AM 34.2 °F 29.0 °F 32.2 °F 92% 29.94 in 10.0 mi WSW 5.8 mph - N/A   Overcast
3:37 AM 34.0 °F 27.2 °F 32.2 °F 93% 29.95 in 10.0 mi WSW 8.1 mph - N/A   Overcast
3:55 AM 34.2 °F 29.0 °F 32.0 °F 92% 29.95 in 10.0 mi WSW 5.8 mph - N/A   Overcast
4:15 AM 34.0 °F 27.2 °F 32.4 °F 94% 29.95 in 10.0 mi WSW 8.1 mph - N/A   Overcast
4:16 AM 34.0 °F 27.2 °F 32.4 °F 94% 29.95 in 10.0 mi WSW 8.1 mph - N/A   Overcast
4:35 AM 33.8 °F 28.6 °F 32.2 °F 94% 29.96 in 10.0 mi West 5.8 mph - N/A   Overcast
4:58 AM 33.8 °F 28.6 °F 32.0 °F 93% 29.96 in 10.0 mi WSW 5.8 mph - N/A   Overcast
5:17 AM 33.8 °F 27.7 °F 32.0 °F 93% 29.96 in 10.0 mi West 6.9 mph - N/A   Overcast
5:36 AM 33.8 °F 30.8 °F 32.0 °F 93% 29.96 in 10.0 mi West 3.5 mph - N/A   Overcast
5:55 AM 33.6 °F 30.6 °F 32.0 °F 94% 29.96 in 10.0 mi WSW 3.5 mph - N/A   Overcast
5:56 AM 33.6 °F 30.6 °F 32.0 °F 94% 29.97 in 10.0 mi WSW 3.5 mph - N/A   Overcast
6:15 AM 33.3 °F 30.2 °F 32.0 °F 95% 29.97 in 10.0 mi WSW 3.5 mph - N/A   Overcast
6:19 AM 33.1 °F - 32.0 °F 96% 29.96 in 10.0 mi Calm Calm - N/A   Overcast
6:37 AM 32.4 °F - 31.8 °F 98% 29.97 in 10.0 mi Calm Calm - N/A   Scattered Clouds
6:56 AM 32.0 °F - 31.3 °F 97% 29.97 in 10.0 mi Calm Calm - N/A   Clear
7:15 AM 31.1 °F - 30.2 °F 96% 29.97 in 10.0 mi Calm Calm - N/A   Clear
7:16 AM 31.1 °F - 30.2 °F 96% 29.97 in 10.0 mi Calm Calm - N/A   Clear
7:35 AM 30.2 °F - 29.8 °F 99% 29.97 in 10.0 mi Calm Calm - N/A   Clear
7:36 AM 30.0 °F - 29.7 °F 99% 29.97 in 10.0 mi Calm Calm - N/A   Clear
7:59 AM 30.2 °F - 30.0 °F 99% 29.97 in 10.0 mi Calm Calm - N/A   Clear
8:16 AM 30.2 °F - 30.0 °F 99% 29.98 in 10.0 mi Calm Calm - N/A   Clear
8:36 AM 31.1 °F - 30.6 °F 98% 29.98 in 10.0 mi Calm Calm - N/A   Clear
8:55 AM 32.4 °F 29.1 °F 31.6 °F 97% 29.98 in 10.0 mi SW 3.5 mph - N/A   Clear
8:56 AM 32.4 °F 27.9 °F 31.6 °F 97% 29.98 in 10.0 mi SW 4.6 mph - N/A   Clear
9:15 AM 33.8 °F 29.6 °F 31.8 °F 92% 29.99 in 10.0 mi SW 4.6 mph - N/A   Clear
9:20 AM 34.2 °F 30.0 °F 32.0 °F 92% 29.99 in 10.0 mi SW 4.6 mph - N/A   Clear
9:37 AM 35.6 °F 30.7 °F 31.8 °F 86% 29.98 in 10.0 mi SW 5.8 mph - N/A   Clear
9:55 AM 36.7 °F 30.5 °F 31.5 °F 81% 29.99 in 10.0 mi WSW 8.1 mph - N/A   Clear
10:15 AM 37.6 °F 32.3 °F 31.5 °F 79% 29.98 in 10.0 mi SSW 6.9 mph - N/A   Clear
10:16 AM 37.8 °F 32.5 °F 31.5 °F 78% 29.98 in 10.0 mi SW 6.9 mph - N/A   Clear
10:35 AM 39.0 °F 34.8 °F 31.5 °F 74% 29.98 in 10.0 mi SSW 5.8 mph - N/A   Clear
10:36 AM 39.0 °F 35.7 °F 31.5 °F 74% 29.98 in 10.0 mi SSW 4.6 mph - N/A   Clear
10:58 AM 39.7 °F 35.6 °F 31.6 °F 73% 29.98 in 10.0 mi SSW 5.8 mph - N/A   Clear
11:16 AM 40.1 °F 36.9 °F 31.3 °F 71% 29.97 in 10.0 mi SSW 4.6 mph - N/A   Clear
11:55 AM 41.7 °F 39.8 °F 31.5 °F 67% 29.97 in 10.0 mi WSW 3.5 mph - N/A   Clear
11:56 AM 41.5 °F 37.1 °F 31.5 °F 67% 29.97 in 10.0 mi WSW 6.9 mph - N/A   Clear
12:15 PM 42.3 °F 39.4 °F 31.8 °F 67% 29.97 in 10.0 mi South 4.6 mph - N/A   Clear
12:20 PM 42.8 °F 38.0 °F 32.4 °F 67% 29.97 in 10.0 mi SSW 8.1 mph - N/A   Clear
12:37 PM 42.8 °F 39.3 °F 31.5 °F 64% 29.97 in 10.0 mi SW 5.8 mph - N/A   Clear
12:55 PM 43.7 °F 40.3 °F 31.8 °F 63% 29.96 in 10.0 mi WSW 5.8 mph - N/A   Clear
1:15 PM 43.9 °F 40.5 °F 31.6 °F 62% 29.96 in 10.0 mi SSW 5.8 mph - N/A   Clear
1:16 PM 43.7 °F 39.7 °F 31.6 °F 63% 29.96 in 10.0 mi SSW 6.9 mph - N/A   Clear
1:35 PM 45.0 °F 41.2 °F 31.6 °F 60% 29.95 in 10.0 mi SW 6.9 mph - N/A   Clear
1:36 PM 44.8 °F 40.4 °F 31.6 °F 60% 29.94 in 10.0 mi SSW 8.1 mph - N/A   Clear
1:58 PM 44.8 °F 42.4 °F 32.2 °F 61% 29.94 in 10.0 mi SW 4.6 mph - N/A   Clear
2:16 PM 45.7 °F 42.7 °F 31.8 °F 58% 29.93 in 10.0 mi SSE 5.8 mph - N/A   Clear
2:36 PM 45.9 °F 42.3 °F 32.4 °F 59% 29.93 in 10.0 mi South 6.9 mph - N/A   Clear
2:55 PM 46.0 °F 43.1 °F 32.2 °F 58% 29.92 in 10.0 mi South 5.8 mph - N/A   Clear
2:56 PM 46.2 °F 43.3 °F 32.4 °F 58% 29.92 in 10.0 mi South 5.8 mph - N/A   Clear
3:15 PM 46.8 °F - 32.7 °F 58% 29.91 in 10.0 mi South 5.8 mph - N/A   Clear
3:19 PM 47.1 °F - 32.5 °F 57% 29.91 in 10.0 mi South 4.6 mph - N/A   Clear
3:37 PM 47.7 °F - 33.4 °F 58% 29.90 in 10.0 mi South 6.9 mph - N/A   Clear
3:56 PM 47.5 °F - 32.2 °F 55% 29.90 in 10.0 mi SSE 9.2 mph - N/A   Clear
4:15 PM 47.3 °F - 32.5 °F 57% 29.89 in 10.0 mi South 9.2 mph - N/A   Clear
4:16 PM 47.3 °F - 32.5 °F 57% 29.89 in 10.0 mi South 8.1 mph - N/A   Clear
4:35 PM 46.0 °F 42.5 °F 32.0 °F 58% 29.89 in 10.0 mi South 6.9 mph - N/A   Clear
4:58 PM 46.9 °F - 32.4 °F 57% 29.89 in 10.0 mi SSE 8.1 mph - N/A   Clear
5:17 PM 44.6 °F 42.2 °F 32.4 °F 62% 29.89 in 10.0 mi SSE 4.6 mph - N/A   Clear
5:36 PM 43.5 °F 41.9 °F 33.8 °F 69% 29.89 in 7.0 mi ESE 3.5 mph - N/A   Clear
5:55 PM 43.3 °F 39.9 °F 32.4 °F 65% 29.88 in 10.0 mi ESE 5.8 mph - N/A   Clear
5:56 PM 43.3 °F 40.7 °F 32.5 °F 66% 29.88 in 10.0 mi ESE 4.6 mph - N/A   Clear
6:18 PM 43.7 °F 42.1 °F 32.7 °F 65% 29.88 in 10.0 mi East 3.5 mph - N/A   Clear
6:36 PM 42.6 °F 40.9 °F 32.5 °F 68% 29.88 in 10.0 mi East 3.5 mph - N/A   Clear
6:56 PM 40.5 °F 38.4 °F 32.4 °F 73% 29.89 in 10.0 mi East 3.5 mph - N/A   Clear
7:15 PM 40.5 °F 38.4 °F 32.4 °F 73% 29.90 in 10.0 mi East 3.5 mph - N/A   Clear
7:16 PM 40.5 °F - 32.2 °F 72% 29.90 in 10.0 mi Calm Calm - N/A   Clear
7:35 PM 40.1 °F 36.9 °F 32.5 °F 74% 29.90 in 10.0 mi East 4.6 mph - N/A   Clear
7:39 PM 40.1 °F 38.0 °F 32.5 °F 74% 29.90 in 10.0 mi ESE 3.5 mph - N/A   Clear
7:58 PM 37.9 °F - 33.1 °F 83% 29.90 in 10.0 mi Calm Calm - N/A   Clear
8:16 PM 37.4 °F - 32.5 °F 83% 29.91 in 10.0 mi Calm Calm - N/A   Clear
8:35 PM 38.1 °F 34.6 °F 32.2 °F 79% 29.90 in 10.0 mi East 4.6 mph - N/A   Clear
8:36 PM 38.1 °F 34.6 °F 32.2 °F 79% 29.90 in 10.0 mi East 4.6 mph - N/A   Clear
8:55 PM 37.8 °F 33.3 °F 32.2 °F 80% 29.90 in 10.0 mi East 5.8 mph - N/A   Clear
9:18 PM 38.1 °F 32.3 °F 32.9 °F 81% 29.89 in 10.0 mi East 8.1 mph - N/A   Clear
9:37 PM 38.3 °F 32.5 °F 32.9 °F 81% 29.89 in 10.0 mi East 8.1 mph - N/A   Clear
9:55 PM 37.6 °F 33.1 °F 32.9 °F 83% 29.89 in 10.0 mi East 5.8 mph - N/A   Clear
9:56 PM 37.6 °F 32.3 °F 32.9 °F 83% 29.89 in 10.0 mi East 6.9 mph - N/A   Clear
10:15 PM 37.4 °F 32.1 °F 32.5 °F 83% 29.90 in 10.0 mi East 6.9 mph - N/A   Clear
10:16 PM 37.4 °F 31.4 °F 32.5 °F 83% 29.90 in 10.0 mi East 8.1 mph - N/A   Clear
10:38 PM 37.0 °F 31.6 °F 32.4 °F 83% 29.90 in 10.0 mi East 6.9 mph - N/A   Clear
10:57 PM 37.0 °F 32.4 °F 32.5 °F 84% 29.89 in 10.0 mi East 5.8 mph - N/A   Clear
11:16 PM 36.5 °F 31.0 °F 32.5 °F 86% 29.89 in 10.0 mi East 6.9 mph - N/A   Clear
11:35 PM 36.5 °F 31.8 °F 32.5 °F 86% 29.89 in 10.0 mi East 5.8 mph - N/A   Clear
11:36 PM 36.5 °F 31.8 °F 32.5 °F 86% 29.89 in 10.0 mi East 5.8 mph - N/A   Clear
11:55 PM 36.5 °F 31.8 °F 32.5 °F 86% 29.88 in 10.0 mi East 5.8 mph - N/A   Clear
11:59 PM 36.7 °F 32.0 °F 32.7 °F 86% 29.88 in 10.0 mi East 5.8 mph - N/A   Clear